EN

Hourly Weather Khlibne

Today, 30 October, Friday

Time Temperature Precipitation Wind Pressure Humidity
00:00 +14°C° 0.2 mm 0 mps 742 mmHg 92%
01:00 +15°C° 0.2 mm 1 mps 743 mmHg 91%
02:00 +15°C° 0 mm 1 mps 743 mmHg 92%
03:00 +14°C° 0 mm 1 mps 743 mmHg 92%
04:00 +14°C° 0 mm 1 mps 743 mmHg 92%
05:00 +14°C° 0 mm 1 mps 743 mmHg 92%
06:00 +14°C° 0 mm 1 mps 743 mmHg 90%
07:00 +15°C° 0 mm 2 mps 743 mmHg 88%
08:00 +16°C° 0 mm 2 mps 744 mmHg 84%
09:00 +16°C° 0 mm 2 mps 744 mmHg 78%
10:00 +17°C° 0 mm 3 mps 744 mmHg 73%
11:00 +18°C° 0 mm 3 mps 744 mmHg 67%
12:00 +18°C° 0 mm 4 mps 744 mmHg 65%
13:00 +18°C° 0 mm 4 mps 744 mmHg 64%
14:00 +18°C° 0 mm 4 mps 744 mmHg 62%
15:00 +17°C° 0 mm 3 mps 743 mmHg 65%
16:00 +16°C° 0 mm 3 mps 743 mmHg 67%
17:00 +15°C° 0 mm 2 mps 743 mmHg 70%
18:00 +15°C° 0 mm 2 mps 743 mmHg 72%
19:00 +14°C° 0 mm 2 mps 743 mmHg 75%
20:00 +14°C° 0 mm 1 mps 743 mmHg 78%
21:00 +13°C° 0 mm 1 mps 743 mmHg 80%
22:00 +13°C° 0 mm 1 mps 743 mmHg 83%
23:00 +12°C° 0 mm 1 mps 743 mmHg 85%

Tomorrow, 31 October, Saturday

Time Temperature Precipitation Wind Pressure Humidity
00:00 +12°C° 0 mm 1 mps 742 mmHg 85%
01:00 +12°C° 0 mm 1 mps 742 mmHg 86%
02:00 +12°C° 0 mm 1 mps 742 mmHg 86%
03:00 +12°C° 0 mm 1 mps 741 mmHg 86%
04:00 +12°C° 0 mm 1 mps 741 mmHg 86%
05:00 +12°C° 0 mm 1 mps 741 mmHg 86%
06:00 +12°C° 1.5 mm 2 mps 741 mmHg 88%
07:00 +11°C° 1.5 mm 3 mps 740 mmHg 90%
08:00 +11°C° 1.5 mm 3 mps 740 mmHg 92%
09:00 +10°C° 4.2 mm 5 mps 740 mmHg 93%
10:00 +10°C° 4.2 mm 6 mps 740 mmHg 93%
11:00 +10°C° 4.2 mm 7 mps 740 mmHg 93%
12:00 +9°C° 2 mm 7 mps 739 mmHg 92%
13:00 +9°C° 2 mm 7 mps 739 mmHg 91%
14:00 +9°C° 2 mm 6 mps 739 mmHg 89%
15:00 +9°C° 0.1 mm 6 mps 739 mmHg 89%
16:00 +9°C° 0.1 mm 6 mps 740 mmHg 88%
17:00 +9°C° 0.1 mm 6 mps 740 mmHg 88%
18:00 +9°C° 0 mm 5 mps 740 mmHg 87%
19:00 +10°C° 0 mm 4 mps 741 mmHg 86%
20:00 +10°C° 0 mm 3 mps 741 mmHg 85%
21:00 +10°C° 0 mm 3 mps 741 mmHg 84%
22:00 +10°C° 0 mm 2 mps 742 mmHg 84%
23:00 +10°C° 0 mm 2 mps 742 mmHg 84%

Day after tomorrow, 1 November, Sunday

Time Temperature Precipitation Wind Pressure Humidity
00:00 +10°C° 0 mm 2 mps 742 mmHg 83%
01:00 +11°C° 0 mm 1 mps 742 mmHg 83%
02:00 +11°C° 0 mm 1 mps 742 mmHg 83%
03:00 +11°C° 0 mm 1 mps 741 mmHg 83%
04:00 +11°C° 0 mm 1 mps 741 mmHg 82%
05:00 +10°C° 0 mm 1 mps 741 mmHg 82%
06:00 +11°C° 0.5 mm 1 mps 741 mmHg 83%
07:00 +11°C° 0.5 mm 1 mps 741 mmHg 83%
08:00 +11°C° 0.5 mm 1 mps 741 mmHg 84%
09:00 +10°C° 2 mm 2 mps 741 mmHg 85%
10:00 +10°C° 2 mm 4 mps 740 mmHg 87%
11:00 +9°C° 2 mm 5 mps 740 mmHg 88%
12:00 +11°C° 0.1 mm 4 mps 740 mmHg 80%
13:00 +12°C° 0.1 mm 4 mps 740 mmHg 73%
14:00 +13°C° 0.1 mm 3 mps 740 mmHg 65%
15:00 +12°C° 0.2 mm 3 mps 741 mmHg 71%
16:00 +11°C° 0.2 mm 3 mps 741 mmHg 78%
17:00 +10°C° 0.2 mm 3 mps 741 mmHg 84%
18:00 +10°C° 0 mm 3 mps 741 mmHg 85%
19:00 +10°C° 0 mm 3 mps 741 mmHg 86%
20:00 +8°C° 0 mm 4 mps 742 mmHg 87%
21:00 +10°C° 0 mm 4 mps 742 mmHg 86%
22:00 +10°C° 0 mm 4 mps 742 mmHg 85%
23:00 +10°C° 0 mm 4 mps 742 mmHg 83%

2 November, Monday

Time Temperature Precipitation Wind Pressure Humidity
00:00 +10°C° 0.1 mm 4 mps 743 mmHg 83%
01:00 +10°C° 0.1 mm 4 mps 743 mmHg 83%
02:00 +11°C° 0.1 mm 4 mps 743 mmHg 83%
03:00 +10°C° 0.1 mm 4 mps 743 mmHg 84%
04:00 +10°C° 0.1 mm 4 mps 744 mmHg 85%
05:00 +10°C° 0.1 mm 4 mps 744 mmHg 86%
06:00 +11°C° 0.2 mm 4 mps 744 mmHg 85%
07:00 +11°C° 0.2 mm 4 mps 745 mmHg 85%
08:00 +11°C° 0.2 mm 3 mps 745 mmHg 85%
09:00 +11°C° 0.1 mm 4 mps 745 mmHg 82%
10:00 +12°C° 0.1 mm 4 mps 746 mmHg 79%
11:00 +12°C° 0.1 mm 5 mps 746 mmHg 76%
12:00 +13°C° 0.1 mm 5 mps 746 mmHg 73%
13:00 +13°C° 0.1 mm 5 mps 746 mmHg 69%
14:00 +13°C° 0.1 mm 6 mps 746 mmHg 66%
15:00 +13°C° 0 mm 5 mps 746 mmHg 69%
16:00 +12°C° 0 mm 4 mps 746 mmHg 73%
17:00 +11°C° 0 mm 3 mps 747 mmHg 76%
18:00 +11°C° 0 mm 3 mps 747 mmHg 77%
19:00 +12°C° 0 mm 2 mps 747 mmHg 78%
20:00 +12°C° 0 mm 2 mps 747 mmHg 78%
21:00 +10°C° 0 mm 2 mps 747 mmHg 79%
22:00 +10°C° 0 mm 2 mps 747 mmHg 79%
23:00 +11°C° 0 mm 1 mps 747 mmHg 79%

3 November, Tuesday

Time Temperature Precipitation Wind Pressure Humidity
00:00 +11°C° 0 mm 1 mps 747 mmHg 79%
01:00 +10°C° 0 mm 1 mps 747 mmHg 78%
02:00 +10°C° 0 mm 1 mps 747 mmHg 77%
03:00 +10°C° 0 mm 1 mps 747 mmHg 77%
04:00 +10°C° 0 mm 1 mps 747 mmHg 77%
05:00 +10°C° 0 mm 1 mps 747 mmHg 77%
06:00 +11°C° 0 mm 1 mps 747 mmHg 75%
07:00 +11°C° 0 mm 1 mps 747 mmHg 74%
08:00 +12°C° 0 mm 1 mps 747 mmHg 72%
09:00 +13°C° 0 mm 1 mps 747 mmHg 68%
10:00 +14°C° 0 mm 1 mps 747 mmHg 64%
11:00 +15°C° 0 mm 1 mps 747 mmHg 60%
12:00 +15°C° 0.1 mm 1 mps 747 mmHg 59%
13:00 +15°C° 0.1 mm 1 mps 747 mmHg 59%
14:00 +15°C° 0.1 mm 1 mps 747 mmHg 58%
15:00 +15°C° 0.2 mm 1 mps 747 mmHg 63%
16:00 +14°C° 0.2 mm 1 mps 747 mmHg 68%
17:00 +13°C° 0.2 mm 1 mps 747 mmHg 72%
18:00 +13°C° 0.2 mm 1 mps 747 mmHg 74%
19:00 +13°C° 0.2 mm 1 mps 747 mmHg 75%
20:00 +12°C° 0.2 mm 1 mps 747 mmHg 76%
21:00 +12°C° 0.5 mm 1 mps 747 mmHg 79%
22:00 +12°C° 0.5 mm 1 mps 747 mmHg 82%
23:00 +11°C° 0.5 mm 1 mps 747 mmHg 84%

4 November, Wednesday

Time Temperature Precipitation Wind Pressure Humidity
00:00 +11°C° 0.2 mm 1 mps 747 mmHg 85%
01:00 +11°C° 0.2 mm 1 mps 746 mmHg 86%
02:00 +10°C° 0.2 mm 0 mps 746 mmHg 86%
03:00 +10°C° 0 mm 0 mps 746 mmHg 87%
04:00 +10°C° 0 mm 0 mps 746 mmHg 87%
05:00 +11°C° 0 mm 1 mps 746 mmHg 87%
06:00 +11°C° 0 mm 1 mps 747 mmHg 87%
07:00 +11°C° 0 mm 1 mps 747 mmHg 86%
08:00 +11°C° 0 mm 1 mps 747 mmHg 85%
09:00 +12°C° 0 mm 2 mps 747 mmHg 81%
10:00 +13°C° 0 mm 2 mps 747 mmHg 77%
11:00 +13°C° 0 mm 3 mps 747 mmHg 73%
12:00 +13°C° 0.1 mm 3 mps 747 mmHg 73%
13:00 +13°C° 0.1 mm 3 mps 747 mmHg 74%
14:00 +13°C° 0.1 mm 4 mps 748 mmHg 74%
15:00 +13°C° 0.2 mm 3 mps 748 mmHg 78%
16:00 +12°C° 0.2 mm 3 mps 748 mmHg 82%
17:00 +12°C° 0.2 mm 3 mps 748 mmHg 86%
18:00 +12°C° 0.2 mm 3 mps 748 mmHg 87%
19:00 +12°C° 0.2 mm 4 mps 749 mmHg 88%
20:00 +12°C° 0.2 mm 4 mps 749 mmHg 90%
21:00 +12°C° 0.3 mm 4 mps 749 mmHg 89%
22:00 +11°C° 0.3 mm 4 mps 749 mmHg 89%
23:00 +11°C° 0.3 mm 4 mps 749 mmHg 89%
Show more

We Need Your Consent

Meteoprog and our Service Providers may store and access personal data such as cookies, device identifiers or other similar technologies on your device and process such data to personalise content and ads, as well as provide social media features and to analyse the traffic.

  • Store and/or access information on your device

    Cookies, device identifiers or other information can be stored or accessed on your device for the purposes indicated above.

  • Personalised ads and content, ad and content measurement, audience insights, and products development

    Ads and content can be personalised based on a profile. More data can be added to better personalise ads and content. Ad and content performance can be measured. Insights about the audience who saw the ads and content can be derived. Such data can be used to develop or improve user’s experience, systems and software.

By clicking ‘I Agree’ you will allow the use of indicated cookies, device identifiers, web beacons or other similar technologies. Your settings can be changed in the browser on your device.

For certain purposes, legitimate interests may be relied on, rather than consent. You can read more about this in our Privacy and Cookie Policy.